KUIPER-00084

导读

KUIPER-00084是美国亚马逊柯伊伯(Project Kuiper)卫星互联网星座计划中的一颗卫星,于2025年7月16日发射。该星座计划总共部署3236颗卫星,旨在为全球提供低延迟、高速的卫星互联网服务,KUIPER-00084的成功入轨,推进了项目建设进程,助力星座组网早日完成,服务未来全球互联需求。

基本信息
目录编号:
64830
目录名称:
KUIPER-00084
国际标识:
2025-151Q
轨道中心:
EARTH
卫星名称:
KUIPER-00084
卫星全名:
KUIPER-00084
卫星状态:
在轨 (已飞行423 天)
发射日期:
2025-07-16 UTC
国别 :
美国 (US)
星等 :
--
该卫星已列入 空间交会检测服务 Space Conjunction Data Service (SCDS) ,当前飞行风险评估等级: 无高风险
轨道信息
数据来源 国际轨道数据 AOE轨道数据
星历时间 2026-09-11T14:13:08+0800
1天前
查看轨道信息
2026-09-09T22:00:00+0800
2天前
查看轨道信息
半长轴 7007.7km 7007.656km
偏心率 0.0000714 0.000071
轨道倾角 51.900° 51.899°
近地点辐角 92.229° 48.405°
升交点赤经 205.003° 212.415°
平近点角 267.875° 18.179°
近地点 629.062km 629.021km
远地点 630.064km 630.017km
周期 97.302分钟 97.301分钟
每日圈数 14.799244 14.799385
详细信息
使用方式:
暂无
2D轨道图
3D轨道图
轨道高度分析图
轨道倾角分析图
轨道综合分析图
查看轨道综合分析图
交会数据列表
事件ID 空间交会对象 最接近时刻(TCA) 交会距离 交会风险概率(CRP) 交会风险指数(CRI) 操作
CDM_260912-120000-615506-483022
2026-09-12T
12:00:55+0000
2.267 km
极远距离
1.421648E-6 低风险 0.38
与全量物体交会距离演化趋势
与全量物体交会风险概率演化趋势